Theta_e
310 310 310 310 310 310 310 309 310 310 310 310 310 310 310 310 310 305 301 301 298 293 293 295 295 292 292 291 287 291 291 291 291 289 289 290 291 293 295 295 295 296 296 297 298 299 296 303 304 304 303 307 308 310
310 310 310 310 309 309 309 309 309 309 310 310 310 310 310 310 310 308 299 301 302 296 294 298 299 299 298 297 293 294 291 290 292 289 290 292 291 292 293 292 298 294 295 298 300 298 302 303 302 304 305 305 307 309
309 309 309 310 309 309 309 309 309 309 309 310 310 310 310 310 309 308 301 300 299 294 293 294 294 299 301 300 301 291 295 294 293 295 293 292 290 292 289 291 293 297 298 301 301 301 301 302 303 303 305 303 305 309
309 309 309 309 309 309 309 309 309 309 309 309 309 310 310 310 308 308 301 300 299 295 288 292 299 297 301 301 300 300 298 297 296 295 294 292 290 294 290 291 291 296 298 299 297 299 305 305 302 302 304 304 306 308
309 309 309 309 309 309 309 309 309 309 309 309 309 309 309 309 308 308 305 302 303 294 288 291 298 299 299 299 299 300 298 296 295 293 293 290 294 292 293 292 292 298 296 296 294 297 298 300 302 302 302 302 305 306
309 309 309 309 309 309 308 309 309 308 309 308 308 308 308 309 308 305 297 303 304 302 291 288 298 298 299 298 297 297 297 296 295 293 294 295 293 293 289 288 295 298 298 299 295 298 299 300 302 303 301 303 306 308
309 308 309 309 309 309 308 308 308 308 309 309 309 308 309 308 307 299 297 302 305 304 293 289 290 297 298 299 297 296 295 296 295 295 293 294 294 294 291 287 294 297 299 300 300 299 298 299 298 301 303 305 306 306
308 308 309 309 308 308 307 308 308 308 309 309 308 308 308 307 305 302 305 305 305 299 296 287 289 292 299 295 295 297 294 294 295 294 294 293 295 295 288 294 296 296 297 297 298 299 299 301 302 302 304 304 303 303
308 308 309 309 308 308 308 308 308 308 308 308 308 308 307 304 300 302 308 306 304 297 289 289 287 287 297 295 297 297 296 291 295 293 293 294 291 288 292 295 295 297 296 296 298 299 299 299 300 302 303 303 302 303
308 308 308 309 308 307 307 308 308 308 307 308 307 303 298 302 309 307 299 295 293 293 291 287 290 288 293 291 292 293 295 291 289 292 294 291 290 296 297 298 300 300 300 299 296 296 298 298 300 301 302 302 303 304
308 308 308 308 308 307 307 308 308 307 307 306 303 300 305 310 302 296 290 290 289 287 288 289 290 288 295 289 289 294 290 291 287 291 289 289 289 294 297 299 302 304 306 306 305 301 300 300 300 301 301 303 303 304
308 307 308 308 307 307 307 307 308 306 307 305 305 306 304 299 296 291 288 288 286 287 290 288 291 292 293 296 291 294 290 290 286 292 288 286 290 297 300 301 303 305 307 308 308 306 302 301 301 301 302 302 304 305
308 307 307 308 307 308 308 309 308 307 307 307 304 301 299 300 293 289 288 288 288 291 292 292 291 293 294 295 292 291 287 287 291 288 286 289 296 299 302 306 306 309 308 306 307 308 306 303 303 302 302 303 304 305
307 307 307 308 308 309 309 309 309 308 307 306 304 292 300 298 300 300 300 301 304 299 296 295 293 293 295 291 290 286 289 287 285 285 285 292 295 296 299 302 303 305 305 305 305 306 306 306 306 305 304 304 305 305
307 307 307 309 309 308 309 309 309 310 309 306 306 294 300 304 304 304 305 304 305 303 298 297 296 295 292 289 288 287 288 286 285 286 291 295 296 296 297 297 299 302 304 303 304 305 306 307 307 308 309 308 307 307
307 307 309 308 307 308 308 309 309 310 311 308 306 302 305 302 300 300 301 301 303 301 301 300 296 296 296 298 293 290 286 287 292 297 300 301 299 298 297 298 298 300 302 301 305 308 307 307 307 308 310 310 310 311
307 309 308 308 307 308 307 311 312 310 308 305 305 307 306 304 302 302 301 301 303 301 301 302 295 294 302 295 292 296 292 296 299 299 299 298 297 299 299 299 299 297 299 299 299 302 310 312 311 309 308 310 310 310
306 310 307 307 307 308 312 312 311 308 304 305 304 304 304 303 301 302 302 303 303 303 303 299 302 294 292 290 291 294 297 300 304 301 297 297 298 298 299 299 298 298 297 298 299 301 302 306 312 313 316 317 316 318
306 307 307 308 308 308 312 312 312 305 303 305 304 303 304 303 304 303 303 303 303 304 302 299 294 290 292 296 295 296 298 298 299 299 298 299 298 297 299 299 299 299 298 297 298 299 301 304 306 309 313 314 315 314
307 308 309 309 309 312 309 310 314 309 304 304 304 301 302 302 303 302 301 302 301 299 296 294 294 296 296 297 298 299 298 299 296 295 294 296 296 298 298 297 296 298 298 298 297 298 302 302 305 307 310 311 313 313
310 314 311 311 315 314 309 308 306 307 306 303 305 302 301 305 302 299 299 302 298 296 295 299 299 299 300 298 297 298 297 297 294 294 293 293 295 296 295 296 297 296 296 296 294 296 300 302 305 309 309 308 308 311
314 312 316 316 314 311 309 309 307 308 306 304 303 303 300 298 298 300 302 298 297 299 300 300 299 299 297 296 296 296 296 297 296 295 294 294 293 293 294 294 294 295 295 296 297 298 298 302 300 305 304 305 303 300
312 314 318 313 309 301 302 311 305 304 303 300 300 298 299 299 301 303 296 299 300 303 303 302 302 299 296 297 297 296 296 295 294 293 293 293 294 294 294 295 295 294 293 295 299 299 299 297 300 301 301 300 300 298
310 312 307 305 304 298 308 306 305 304 304 301 300 297 298 299 302 298 295 297 302 304 302 301 299 297 297 296 293 293 293 294 293 293 292 292 291 292 294 294 295 295 295 296 298 300 300 298 295 297 296 297 296 295
301 301 302 293 305 303 301 299 299 301 298 300 299 297 299 302 295 294 294 300 302 302 302 303 298 296 294 294 294 294 295 293 291 290 291 292 291 292 292 293 295 296 295 295 296 298 298 299 298 296 295 295 294 293
295 305 299 303 303 302 302 297 297 298 299 297 297 299 299 296 291 291 296 301 303 304 303 303 298 294 293 293 292 292 292 293 293 290 291 292 291 290 290 291 291 293 295 296 296 296 297 297 296 296 295 294 292 294
297 303 307 309 308 306 303 303 302 301 297 295 297 295 293 289 289 296 301 302 304 305 305 305 302 296 294 294 294 294 294 294 292 292 293 294 294 293 292 291 290 292 296 297 297 296 295 295 295 295 294 294 294 294
306 308 304 306 306 306 301 301 298 297 299 298 297 292 291 292 294 300 303 304 305 302 299 300 297 296 295 294 294 294 294 295 295 294 294 294 295 295 295 295 296 291 296 295 296 296 295 295 294 294 294 293 294 294
307 309 309 304 303 303 304 302 301 302 302 298 295 294 296 300 302 303 304 304 301 297 296 295 294 295 294 294 294 293 293 293 291 289 288 288 289 291 294 295 295 296 296 296 291 292 294 294 294 294 294 294 294 295
306 310 306 305 302 301 305 305 303 303 303 302 302 300 301 303 304 305 301 298 297 297 297 297 295 296 294 294 293 293 293 293 292 291 289 288 289 292 293 293 294 295 295 295 295 295 292 294 293 294 293 293 293 293
309 308 306 306 305 307 305 303 304 304 304 304 303 301 301 303 299 298 298 298 298 298 296 295 295 296 296 295 294 293 291 293 293 293 293 294 294 294 294 293 294 295 295 294 294 293 293 293 293 292 292 292 292 292
308 306 305 303 304 303 305 305 304 304 304 303 303 303 303 302 296 296 298 301 300 296 293 296 296 295 296 296 296 295 289 294 294 294 294 294 294 294 295 295 295 294 294 293 293 293 293 292 292 292 292 292 292 293
307 307 307 304 300 299 303 304 303 302 303 303 304 303 300 299 293 298 304 303 298 297 297 297 296 296 296 295 295 294 293 295 292 288 288 288 287 289 294 295 294 294 293 293 293 293 292 292 292 293 293 293 294 294
Wind_Speed
22 21 21 21 20 19 18 18 17 16 16 16 15 15 15 13 10 5 1 7 4 3 8 8 7 10 7 4 4 7 6 3 5 7 5 4 3 5 2 6 4 2 2 2 2 3 6 17 4 1 7 7 9 11
22 20 20 19 19 18 18 16 16 15 15 15 14 14 14 12 10 4 2 3 3 3 6 3 11 14 13 9 8 3 6 5 5 5 5 3 4 5 6 2 5 1 5 3 6 7 7 9 13 8 7 9 12 13
21 20 19 18 17 16 16 16 15 14 13 13 13 13 13 10 6 4 2 4 3 2 7 4 3 0 7 13 11 4 2 3 2 4 4 3 4 4 5 5 6 2 3 3 5 5 3 7 9 12 8 13 14 14
20 19 19 17 16 16 14 14 14 13 13 12 12 12 11 8 2 2 3 3 2 1 3 3 1 4 1 7 14 15 6 2 5 3 2 2 3 4 3 5 4 4 6 3 4 4 4 6 11 14 11 14 15 16
20 18 18 16 15 15 14 13 13 13 12 10 10 10 10 6 2 2 2 4 1 3 2 6 13 1 1 5 11 10 10 6 3 3 2 2 2 3 2 3 4 2 2 2 3 4 4 5 13 14 14 17 17 18
19 18 18 16 14 14 14 12 12 12 11 10 9 8 7 4 1 0 1 2 4 2 0 4 4 3 4 1 4 6 5 4 3 3 2 1 1 4 4 4 5 5 2 1 3 2 7 13 12 8 15 16 16 15
19 18 17 16 15 14 13 11 11 11 11 8 8 6 4 1 2 1 2 1 7 2 1 4 4 2 4 2 2 2 4 2 3 2 3 3 2 4 3 6 5 6 4 5 7 10 14 9 12 17 14 14 13 14
19 19 17 16 15 15 14 11 10 10 9 6 3 4 8 10 7 2 2 6 3 2 1 2 4 2 5 2 2 1 2 3 4 3 1 3 1 2 8 13 8 10 10 13 14 15 16 15 14 14 12 13 15 13
19 19 17 16 15 13 12 11 10 9 6 3 3 5 2 2 1 1 13 10 2 3 1 1 3 3 7 4 2 1 0 2 2 3 3 3 3 7 10 14 15 12 12 16 15 15 16 15 16 16 14 13 13 12
19 19 17 16 15 15 12 10 8 6 3 6 2 2 2 1 14 8 1 1 2 2 1 1 1 1 3 3 2 2 2 1 2 3 4 4 7 15 18 19 18 20 21 20 21 19 16 15 14 15 14 13 12 11
19 21 18 16 16 15 12 8 5 2 5 2 1 2 1 12 1 1 1 1 0 0 2 2 1 2 1 2 2 2 2 1 2 2 2 1 3 5 10 14 18 22 22 20 19 20 21 19 16 14 15 17 15 15
19 21 17 16 16 14 11 7 3 3 2 3 3 3 2 2 2 1 1 0 1 3 2 1 1 2 2 2 3 1 1 1 3 3 2 3 5 12 14 18 20 21 24 26 21 20 18 18 17 16 17 19 18 17
20 21 17 15 14 11 10 6 6 5 7 2 2 3 2 1 6 5 7 5 4 2 3 2 1 1 2 1 2 2 2 2 5 1 2 3 13 16 17 13 16 17 19 22 23 19 15 11 11 14 16 16 19 18
21 20 17 14 12 11 8 4 9 7 2 1 1 7 3 4 5 2 5 5 2 2 3 2 1 1 0 0 2 2 2 2 4 5 6 9 17 17 17 16 20 17 19 16 13 13 15 13 10 10 13 13 14 17
21 23 16 3 11 13 5 8 11 3 2 1 2 4 2 2 3 5 4 4 1 1 2 1 1 0 1 1 1 2 3 5 4 4 4 9 15 15 17 17 16 20 18 12 9 8 11 12 10 10 10 12 14 13
22 16 2 8 15 9 9 9 3 2 1 1 3 1 2 2 7 7 6 4 1 1 2 1 1 2 4 2 3 6 3 5 4 5 8 10 14 14 16 16 16 15 16 17 15 9 10 11 11 12 12 12 13 16
17 2 5 10 13 2 3 2 2 1 2 2 3 2 2 1 3 4 5 5 1 3 2 1 6 6 4 5 6 6 6 6 6 8 8 12 14 15 15 15 15 16 17 17 17 14 14 10 10 10 12 11 11 13
4 2 8 10 8 1 2 2 1 1 4 2 3 4 4 4 5 5 7 7 1 3 4 5 4 7 5 5 5 6 4 5 4 5 8 11 14 15 13 15 15 14 15 17 15 13 13 13 6 5 7 5 1 4
12 14 19 12 3 2 1 2 2 3 3 2 3 3 2 3 6 5 7 8 4 3 3 4 5 3 3 2 6 6 5 4 5 6 7 11 13 14 14 15 15 15 13 14 16 12 10 9 7 8 4 3 2 1
13 9 7 2 7 1 2 2 1 4 4 3 3 5 3 3 6 7 10 8 6 4 7 5 3 3 3 5 5 5 5 5 5 6 8 9 10 12 14 13 12 13 12 12 9 12 12 13 13 10 7 6 3 5
4 2 2 3 1 2 3 2 4 3 4 3 1 2 1 1 4 6 5 6 6 4 3 2 4 3 5 4 4 4 5 6 6 5 4 7 10 10 11 12 13 12 12 11 10 11 13 11 10 9 9 9 9 7
1 1 1 1 1 2 4 3 3 2 3 3 3 2 2 2 3 4 2 4 3 3 3 3 5 5 6 8 7 8 7 7 7 5 6 7 9 10 10 11 12 13 13 13 12 12 10 9 11 11 11 11 13 14
3 1 1 2 2 5 1 1 2 2 3 4 2 2 2 2 2 2 2 2 1 2 3 2 3 3 4 4 6 9 10 10 8 8 9 8 7 8 9 10 10 11 12 13 11 11 11 11 12 11 11 12 13 14
2 2 3 3 3 2 1 2 2 3 3 3 2 3 2 2 1 2 2 1 1 1 2 3 2 1 3 7 6 6 8 7 8 8 10 10 10 10 10 10 9 10 11 10 10 10 11 10 10 10 12 14 14 13
3 6 3 4 1 1 3 2 2 1 3 1 2 2 2 1 2 2 1 1 0 1 1 1 3 3 3 3 4 6 7 7 7 7 9 9 9 9 9 10 10 9 11 10 11 10 10 10 11 12 14 13 13 14
4 3 3 0 1 2 2 1 2 2 2 2 2 3 1 2 2 3 2 2 1 1 1 0 3 4 4 4 5 6 6 5 5 7 8 8 9 9 10 10 10 11 12 10 9 10 11 11 12 15 13 15 14 13
2 1 1 1 1 2 1 1 1 1 2 2 3 3 2 2 2 2 2 3 2 1 0 1 3 3 4 3 3 3 5 6 5 3 7 7 7 7 7 9 11 10 10 11 10 11 11 11 11 12 12 12 13 13
1 3 2 3 2 1 0 1 2 2 3 3 3 4 4 4 3 3 2 3 2 3 5 4 4 4 4 4 3 4 5 6 6 8 4 7 8 9 11 9 9 10 8 11 11 11 10 10 10 11 11 11 10 10
2 2 2 1 2 2 2 1 1 1 4 3 3 3 4 2 2 3 3 4 5 5 5 5 4 4 4 4 3 4 4 6 10 14 13 9 9 8 9 9 9 9 8 8 9 10 10 9 10 9 10 8 8 8
1 3 2 2 2 2 2 1 2 3 1 2 2 2 2 3 3 4 3 5 5 3 3 4 4 2 3 2 2 3 4 5 5 7 9 8 8 7 7 8 9 9 9 9 9 9 10 8 8 8 8 8 7 8
2 3 2 1 1 2 2 3 3 2 2 2 1 2 3 4 3 5 3 3 4 1 4 5 4 2 3 4 4 4 5 5 5 6 5 5 5 6 7 7 6 6 7 8 8 8 9 8 8 9 10 10 10 9
3 4 2 2 1 2 2 1 1 1 2 1 2 2 2 1 4 4 5 5 4 3 3 4 4 5 5 5 5 5 5 4 5 6 8 7 7 6 5 5 6 7 7 8 7 7 8 10 9 10 10 11 10 10
2 2 2 3 3 4 3 3 2 2 2 2 2 2 1 3 4 1 2 4 5 4 4 5 6 6 8 8 7 5 5 5 6 6 7 7 7 7 6 5 6 7 8 7 7 7 9 10 9 10 10 10 11 11
Wind_Direction
312 318 321 323 321 320 316 313 309 304 299 293 292 292 292 297 300 180 195 184 180 241 275 228 245 268 266 249 284 335 291 3 349 29 3 23 359 28 316 31 359 51 191 144 221 176 150 353 62 136 0 344 342 340
316 321 322 323 325 323 320 318 314 310 305 300 296 295 295 288 292 227 193 175 160 253 284 288 265 265 241 259 290 291 317 299 357 351 4 324 4 355 351 73 1 78 13 46 360 85 84 57 72 37 13 356 352 338
318 321 320 323 325 321 318 322 321 317 312 310 305 298 299 294 288 241 140 141 138 282 279 269 262 276 234 240 226 259 211 320 51 343 330 340 3 329 8 36 310 63 2 110 190 109 158 77 42 21 8 356 347 343
319 322 321 320 322 320 321 325 324 322 322 320 316 314 312 320 275 203 154 165 117 117 287 290 238 290 169 188 202 220 248 269 316 278 309 339 335 0 352 318 297 342 314 34 86 52 132 191 9 353 350 351 351 349
319 321 318 318 321 322 325 328 327 329 331 328 320 323 330 338 195 212 150 178 310 147 259 296 306 54 330 240 226 213 227 251 299 287 271 2 291 292 272 261 244 258 3 358 97 95 344 305 330 335 345 343 346 345
319 319 318 317 321 323 325 326 329 330 330 334 329 329 328 327 209 148 127 148 172 123 46 302 341 288 334 308 228 208 188 213 265 300 334 283 332 305 311 286 244 225 228 3 114 333 310 300 305 328 332 330 340 340
320 322 323 317 317 319 324 323 321 321 320 316 313 326 332 155 105 39 19 152 152 158 240 296 308 1 341 53 77 134 162 192 251 279 251 294 290 311 264 254 236 215 233 264 293 311 306 307 310 319 317 320 325 327
320 325 324 318 322 323 326 326 320 316 322 330 343 26 97 108 114 109 67 106 125 79 8 314 294 3 351 37 338 170 179 199 201 288 246 276 316 266 251 255 316 318 303 286 283 280 278 293 295 297 308 315 323 333
319 327 324 319 318 322 323 324 321 318 331 332 179 143 130 45 55 34 114 93 68 69 358 311 312 348 0 19 327 343 243 224 63 250 232 234 216 240 277 299 304 305 293 298 297 287 288 287 289 293 299 309 320 330
321 329 325 321 318 321 322 321 320 327 347 133 167 207 97 64 127 119 59 51 45 57 68 246 341 323 352 353 320 339 348 37 299 39 316 256 258 281 288 294 297 298 294 291 283 280 277 269 274 286 294 299 300 309
323 331 329 325 321 319 318 321 309 313 153 181 144 75 67 143 143 27 90 284 84 299 187 260 259 314 179 295 337 324 347 338 271 97 239 254 260 261 265 284 288 293 289 282 277 267 262 258 261 268 280 286 288 295
324 331 329 324 320 315 315 320 260 167 148 115 101 111 140 199 177 237 349 311 203 357 181 236 270 226 260 236 241 263 307 194 243 13 269 258 253 270 294 292 289 286 286 280 269 266 256 256 251 253 258 269 275 282
325 331 327 319 317 307 305 300 194 132 142 129 152 160 200 220 27 41 351 323 351 185 214 215 231 221 204 231 288 319 336 331 305 309 293 271 312 318 322 314 295 287 298 286 271 254 246 246 255 251 254 257 271 278
325 331 327 316 300 299 304 279 164 161 223 221 76 16 33 12 14 301 316 299 13 223 198 197 241 228 130 178 6 310 47 246 5 339 12 326 336 337 342 342 347 337 331 320 276 243 240 247 250 252 238 243 259 272
325 329 320 342 334 333 306 168 157 191 204 35 57 52 50 328 269 287 300 300 41 275 159 194 207 284 144 122 115 263 350 23 53 345 296 322 329 341 347 347 344 358 351 335 320 276 259 249 245 251 240 238 247 257
328 321 57 8 0 3 125 136 178 216 177 91 69 75 350 309 6 11 3 12 120 218 191 207 284 277 54 46 12 13 42 33 10 341 334 331 331 335 332 340 352 349 358 356 350 307 275 265 256 255 262 257 252 251
323 241 42 12 1 51 171 264 220 25 61 84 80 46 13 299 298 327 350 349 168 248 21 304 36 8 343 37 20 10 17 5 343 337 340 337 338 341 340 340 342 355 358 358 352 347 343 286 272 258 258 261 244 241
250 274 330 340 348 281 221 238 284 61 66 40 80 46 50 26 339 14 353 356 336 22 14 44 30 30 32 7 352 341 324 304 299 345 353 347 348 350 351 350 352 342 353 353 353 350 354 348 4 328 271 249 212 247
283 295 297 303 295 294 217 80 350 79 59 61 26 44 36 47 26 1 7 13 34 44 71 53 53 31 357 338 322 319 329 335 320 333 344 1 356 353 355 357 359 -0 352 351 353 349 349 350 358 343 3 9 118 91
297 279 292 120 183 253 114 58 3 69 56 73 79 48 38 21 343 19 26 11 20 42 42 48 29 360 335 326 326 316 333 326 343 3 1 356 358 351 359 358 358 352 359 358 348 355 351 353 357 346 18 6 357 38
299 135 152 205 165 47 65 26 72 60 108 84 77 50 84 10 42 50 36 356 43 38 55 332 353 355 4 9 12 358 20 10 22 12 340 333 348 358 2 358 354 5 6 2 356 356 5 0 350 11 27 24 9 22
345 272 206 198 52 65 86 28 74 96 85 125 135 116 128 98 72 41 36 46 51 17 345 345 356 2 26 26 16 22 13 13 18 8 358 350 2 360 356 357 357 358 4 9 357 3 7 0 3 18 25 32 32 33
298 192 118 9 114 55 56 258 98 56 130 139 117 145 120 140 130 256 80 81 45 353 335 338 6 47 53 61 53 35 18 3 6 7 359 351 354 1 352 354 359 2 355 359 3 10 15 16 11 29 34 39 49 44
274 29 37 48 60 92 154 69 82 102 114 193 189 103 66 68 31 64 80 144 118 346 11 18 20 91 62 44 32 21 7 356 5 14 9 358 359 359 355 354 358 1 357 344 1 12 26 34 36 40 46 49 49 53
49 351 49 354 38 40 59 44 57 115 86 69 93 114 96 257 109 110 154 116 290 336 348 64 83 49 50 51 33 28 28 9 6 9 12 359 352 347 355 353 360 19 359 353 359 10 29 36 37 44 45 45 48 50
73 2 66 107 64 20 34 23 51 85 117 103 88 108 134 131 146 143 189 201 220 224 285 250 150 114 83 46 35 26 4 347 360 23 14 3 4 356 353 356 355 8 4 350 356 11 30 37 43 45 38 40 34 41
86 123 102 15 86 114 138 118 120 159 141 161 151 153 173 161 135 155 202 207 221 135 164 162 143 108 109 97 85 52 36 30 14 18 10 13 23 19 7 3 359 350 346 8 26 29 29 29 34 37 45 41 34 38
101 166 222 139 137 163 217 155 172 187 159 135 157 188 184 176 134 158 165 124 148 110 98 97 106 115 107 92 68 50 39 24 37 36 34 34 28 23 10 7 11 349 8 29 15 24 25 29 30 30 36 44 43 32
193 145 190 184 143 191 218 216 194 147 130 177 192 179 176 182 120 144 138 124 131 128 121 129 122 120 110 99 80 61 41 24 21 24 24 20 15 17 1 5 9 12 10 14 51 37 30 36 31 34 38 32 35 47
171 181 201 176 215 213 123 180 149 124 135 61 81 109 115 90 50 22 54 122 129 139 144 137 138 135 89 51 83 86 70 43 30 18 15 14 7 353 359 8 12 14 15 19 19 24 20 28 29 33 30 33 22 25
146 187 188 182 248 59 47 90 92 106 118 95 94 96 93 106 86 43 89 49 34 65 118 109 106 76 54 45 21 22 65 60 36 28 6 352 2 8 5 1 360 1 8 14 13 15 9 10 10 12 20 22 28 22
185 203 199 201 128 110 155 137 131 108 97 111 89 104 139 116 84 69 28 18 326 297 90 108 96 72 52 60 72 75 46 29 11 3 359 354 351 350 344 350 352 352 355 358 360 3 6 7 10 10 8 11 8 4
147 148 110 136 147 180 186 177 154 104 105 134 114 93 70 71 89 143 234 203 266 300 124 96 78 71 73 76 70 63 44 51 48 40 16 14 9 354 344 356 354 359 2 7 9 8 7 3 3 3 4 0 357 354